Weather History for Rogers City, MI

Change the Weather History Date:

Sunday, March 30, 2014

  Actual Average (KAPN) Record (KAPN)
Temperature  
Mean Temperature 24 °F 34 °F  
Max Temperature 35 °F 44 °F 74 °F (1998)
Min Temperature 12 °F 25 °F 2 °F (1941)
Degree Days  
Heating Degree Days 42 30  
Month to date heating degree days 1092  
Since 1 July heating degree days 6824  
Cooling Degree Days 0 0  
Month to date cooling degree days 0  
Year to date cooling degree days 0  
Moisture  
Dew Point 19 °F    
Average Humidity 74    
Maximum Humidity 96    
Minimum Humidity 56    
Precipitation  
Precipitation 0.00 in 0.06 in 0.85 in (1998)
Month to date precipitation 1.79  
Year to date precipitation 4.77  
Snow  
Snow 0.00 in 0.30 in 5.30 in (1934)
Month to date snowfall 11.9  
Since 1 July snowfall 78.0  
Snow Depth -    
Sea Level Pressure  
Sea Level Pressure 30.19 in    
Wind  
Wind Speed 2 mph (East)    
Max Wind Speed 10 mph    
Max Gust Speed -    
Visibility 10 miles    
Events      
T = Trace of Precipitation, MM = Missing Value Source: NWS Daily Summary

Daily Weather History Graph

Daily Weather History Graph

Search for Another Location

Airport:

Trip Planner

Search our weather history database for the weather conditions in past years. The results will help you decide how hot, cold, wet, or windy it might be!

Date:

Astronomy

Mar. 30, 2014 Rise Set
Actual Time 7:19 AM EDT 8:00 PM EDT
Civil Twilight 6:49 AM EDT 8:30 PM EDT
Nautical Twilight 6:14 AM EDT 9:06 PM EDT
Astronomical Twilight 5:37 AM EDT 9:43 PM EDT
Moon 7:04 AM EDT (3/30) 8:13 PM EDT (3/30)
Length of Visible Light 13h 41m
Length of Day
12h 41m
Waning Crescent, 0% of the Moon is Illuminated
Mar 30
Waning Crescent
Mar 30
New
Apr 7
First Quarter
Apr 15
Full
Apr 22
Last Quarter

Hourly Weather History & Observations

Time (EDT) Temp. Windchill Dew Point Humidity Pressure Visibility Wind Dir Wind Speed Gust Speed Precip Events Conditions
12:14 AM 22.8 °F - 21.4 °F 94% 30.25 in 10.0 mi Calm Calm - N/A   Clear
12:35 AM 21.6 °F - 20.3 °F 95% 30.25 in 10.0 mi Calm Calm - N/A   Clear
12:55 AM 20.3 °F - 18.9 °F 94% 30.25 in 10.0 mi Calm Calm - N/A   Clear
1:14 AM 18.5 °F 13.3 °F 17.4 °F 96% 30.25 in 7.0 mi West 3.5 mph - N/A   Clear
1:35 AM 18.7 °F - 17.6 °F 96% 30.25 in 10.0 mi Calm Calm - N/A   Clear
1:54 AM 19.0 °F - 18.1 °F 96% 30.25 in 10.0 mi Calm Calm - N/A   Clear
2:14 AM 19.8 °F - 18.9 °F 96% 30.25 in 10.0 mi Calm Calm - N/A   Clear
2:35 AM 19.2 °F - 18.1 °F 96% 30.25 in 10.0 mi Calm Calm - N/A   Clear
2:54 AM 18.1 °F - 16.9 °F 95% 30.25 in 10.0 mi Calm Calm - N/A   Clear
3:15 AM 19.4 °F - 18.0 °F 94% 30.25 in 10.0 mi Calm Calm - N/A   Clear
3:35 AM 20.5 °F - 18.0 °F 90% 30.24 in 10.0 mi Calm Calm - N/A   Clear
3:54 AM 18.5 °F - 15.6 °F 89% 30.25 in 10.0 mi Calm Calm - N/A   Clear
4:15 AM 19.4 °F 14.3 °F 17.2 °F 91% 30.25 in 10.0 mi NE 3.5 mph - N/A   Clear
4:35 AM 22.5 °F 16.3 °F 18.1 °F 83% 30.24 in 10.0 mi ENE 4.6 mph - N/A   Clear
4:54 AM 19.6 °F - 15.3 °F 83% 30.24 in 10.0 mi Calm Calm - N/A   Clear
5:15 AM 17.4 °F - 14.9 °F 90% 30.24 in 10.0 mi Calm Calm - N/A   Clear
5:35 AM 15.6 °F - 13.5 °F 91% 30.25 in 10.0 mi Calm Calm - N/A   Clear
5:54 AM 14.7 °F - 12.7 °F 92% 30.25 in 10.0 mi Calm Calm - N/A   Clear
6:15 AM 14.2 °F - 12.4 °F 93% 30.25 in 10.0 mi Calm Calm - N/A   Clear
6:34 AM 14.4 °F - 12.4 °F 92% 30.26 in 10.0 mi Calm Calm - N/A   Clear
6:54 AM 14.2 °F - 12.6 °F 93% 30.26 in 10.0 mi Calm Calm - N/A   Clear
7:14 AM 12.9 °F - 10.9 °F 92% 30.27 in 10.0 mi Calm Calm - N/A   Clear
7:34 AM 13.5 °F - 11.8 °F 93% 30.26 in 10.0 mi Calm Calm - N/A   Clear
7:55 AM 14.2 °F - 12.4 °F 93% 30.26 in 10.0 mi Calm Calm - N/A   Clear
8:14 AM 16.9 °F - 14.9 °F 92% 30.25 in 10.0 mi Calm Calm - N/A   Clear
8:35 AM 21.7 °F - 19.2 °F 90% 30.26 in 10.0 mi Calm Calm - N/A   Clear
8:55 AM 25.2 °F 20.9 °F 20.5 °F 82% 30.26 in 10.0 mi ENE 3.5 mph - N/A   Clear
9:14 AM 27.0 °F 20.5 °F 19.8 °F 74% 30.25 in 10.0 mi ENE 5.8 mph - N/A   Clear
9:35 AM 27.3 °F 23.4 °F 19.0 °F 71% 30.25 in 10.0 mi ENE 3.5 mph - N/A   Clear
9:55 AM 27.7 °F 21.3 °F 18.5 °F 68% 30.25 in 10.0 mi ENE 5.8 mph - N/A   Clear
10:14 AM 28.4 °F 23.3 °F 19.2 °F 69% 30.25 in 10.0 mi ESE 4.6 mph - N/A   Clear
10:35 AM 29.1 °F 25.4 °F 19.8 °F 68% 30.25 in 10.0 mi ESE 3.5 mph - N/A   Clear
10:55 AM 29.3 °F 25.6 °F 19.9 °F 68% 30.24 in 10.0 mi ESE 3.5 mph - N/A   Clear
11:14 AM 30.2 °F - 19.6 °F 65% 30.24 in 10.0 mi Calm Calm - N/A   Clear
11:35 AM 30.9 °F - 19.8 °F 63% 30.24 in 10.0 mi Calm Calm - N/A   Clear
11:54 AM 30.7 °F 26.0 °F 20.7 °F 66% 30.23 in 10.0 mi North 4.6 mph - N/A   Clear
12:14 PM 32.0 °F - 20.8 °F 63% 30.21 in 10.0 mi Calm Calm - N/A   Clear
12:35 PM 32.0 °F 28.7 °F 20.8 °F 63% 30.20 in 10.0 mi NNE 3.5 mph - N/A   Clear
12:54 PM 32.0 °F 26.4 °F 20.1 °F 62% 30.19 in 10.0 mi NE 5.8 mph - N/A   Clear
1:15 PM 32.0 °F 27.5 °F 18.9 °F 58% 30.19 in 10.0 mi NE 4.6 mph - N/A   Clear
1:35 PM 32.0 °F 28.7 °F 18.5 °F 58% 30.19 in 10.0 mi NE 3.5 mph - N/A   Clear
1:54 PM 32.9 °F 28.5 °F 20.3 °F 60% 30.18 in 10.0 mi NE 4.6 mph - N/A   Clear
2:15 PM 33.3 °F - 21.6 °F 62% 30.18 in 10.0 mi Calm Calm - N/A   Clear
2:34 PM 34.2 °F 30.0 °F 21.6 °F 60% 30.18 in 10.0 mi ENE 4.6 mph - N/A   Clear
2:55 PM 34.9 °F 29.9 °F 21.7 °F 59% 30.16 in 10.0 mi ENE 5.8 mph - N/A   Clear
3:15 PM 34.7 °F 28.8 °F 22.6 °F 61% 30.14 in 10.0 mi East 6.9 mph - N/A   Clear
3:34 PM 33.8 °F 27.7 °F 22.5 °F 63% 30.13 in 10.0 mi East 6.9 mph - N/A   Clear
3:55 PM 33.8 °F 27.0 °F 22.6 °F 64% 30.12 in 10.0 mi East 8.1 mph - N/A   Clear
4:15 PM 34.3 °F 27.0 °F 21.6 °F 60% 30.11 in 10.0 mi East 9.2 mph - N/A   Clear
4:34 PM 34.9 °F 29.0 °F 22.1 °F 60% 30.11 in 10.0 mi East 6.9 mph - N/A   Clear
4:55 PM 35.6 °F 29.2 °F 22.1 °F 58% 30.10 in 10.0 mi East 8.1 mph - N/A   Clear
5:14 PM 35.6 °F 29.2 °F 22.3 °F 58% 30.09 in 10.0 mi East 8.1 mph - N/A   Clear
5:35 PM 34.7 °F 26.9 °F 22.6 °F 61% 30.09 in 10.0 mi East 10.4 mph - N/A   Clear
5:55 PM 35.8 °F 29.4 °F 23.2 °F 60% 30.09 in 10.0 mi East 8.1 mph - N/A   Clear
6:14 PM 35.6 °F 30.7 °F 23.9 °F 62% 30.09 in 10.0 mi East 5.8 mph - N/A   Clear
6:35 PM 34.7 °F 28.8 °F 23.9 °F 65% 30.09 in 10.0 mi East 6.9 mph - N/A   Clear
6:54 PM 34.3 °F 27.7 °F 24.1 °F 66% 30.09 in 10.0 mi East 8.1 mph - N/A   Clear
7:15 PM 33.3 °F 27.9 °F 24.1 °F 69% 30.09 in 10.0 mi East 5.8 mph - N/A   Clear
7:35 PM 32.9 °F 29.8 °F 24.8 °F 72% 30.09 in 10.0 mi SE 3.5 mph - N/A   Clear
7:54 PM 34.7 °F 29.6 °F 23.4 °F 63% 30.09 in 10.0 mi SE 5.8 mph - N/A   Clear
8:15 PM 33.4 °F 29.1 °F 22.6 °F 65% 30.09 in 10.0 mi SE 4.6 mph - N/A   Clear
8:35 PM 33.8 °F 27.0 °F 21.7 °F 61% 30.09 in 10.0 mi SSE 8.1 mph - N/A   Clear
8:54 PM 33.1 °F 26.1 °F 20.7 °F 60% 30.10 in 10.0 mi SSE 8.1 mph - N/A   Clear
9:15 PM 32.5 °F 26.2 °F 18.5 °F 56% 30.10 in 10.0 mi SE 6.9 mph - N/A   Clear
9:35 PM 32.0 °F 24.8 °F 18.5 °F 58% 30.10 in 10.0 mi SSE 8.1 mph - N/A   Clear
9:54 PM 31.8 °F 26.2 °F 18.5 °F 58% 30.10 in 10.0 mi SSE 5.8 mph - N/A   Clear
10:15 PM 31.1 °F 25.4 °F 19.4 °F 62% 30.10 in 10.0 mi SSE 5.8 mph - N/A   Clear
10:34 PM 31.1 °F 24.5 °F 20.3 °F 64% 30.10 in 10.0 mi SSE 6.9 mph - N/A   Clear
10:54 PM 31.6 °F 23.7 °F 20.8 °F 64% 30.10 in 10.0 mi South 9.2 mph - N/A   Clear
11:15 PM 31.8 °F 25.4 °F 21.4 °F 65% 30.10 in 10.0 mi SSE 6.9 mph - N/A   Clear
11:34 PM 31.5 °F 24.9 °F 21.7 °F 67% 30.10 in 10.0 mi SSE 6.9 mph - N/A   Clear
11:55 PM 31.1 °F 26.4 °F 22.1 °F 69% 30.11 in 10.0 mi South 4.6 mph - N/A   Clear